Weather History for Belize, Belize

Change the Weather History Date:

Thursday, October 10, 2013

  Actual Average Record
Temperature  
Mean Temperature 82 °F -  
Max Temperature 87 °F 86 °F 91 °F (2011)
Min Temperature 76 °F 72 °F 71 °F (2010)
Cooling Degree Days 16    
Growing Degree Days 32 (Base 50)    
Moisture  
Dew Point 77 °F    
Average Humidity 83    
Maximum Humidity 100    
Minimum Humidity 63    
Precipitation  
Precipitation 0.51 in 0.30 in - ()
Sea Level Pressure  
Sea Level Pressure 29.92 in    
Wind  
Wind Speed 5 mph ()    
Max Wind Speed 12 mph    
Max Gust Speed -    
Visibility 8.1 miles    
Events      
Averages and records for this station are not official NWS values.
T = Trace of Precipitation, MM = Missing Value Source: Averaged Metar Reports

Daily Weather History Graph

Daily Weather History Graph

Search for Another Location

Airport:

Trip Planner

Search our weather history database for the weather conditions in past years. The results will help you decide how hot, cold, wet, or windy it might be!

Date:

Astronomy

Oct. 10, 2013 Rise Set
Actual Time 5:45 AM CST 5:34 PM CST
Civil Twilight 5:23 AM CST 5:56 PM CST
Nautical Twilight 4:58 AM CST 6:21 PM CST
Astronomical Twilight 4:33 AM CST 6:46 PM CST
Moon 11:05 AM CST (10/10) 10:41 PM CST (10/10)
Length of Visible Light 12h 32m
Length of Day
11h 49m
Waxing Crescent, 36% of the Moon is Illuminated
Oct 10
Waxing Crescent
Oct 11
First Quarter
Oct 18
Full
Oct 26
Last Quarter
Nov 3
New

Hourly Weather History & Observations

Time (CST) Temp. Heat Index Dew Point Humidity Pressure Visibility Wind Dir Wind Speed Gust Speed Precip Events Conditions
12:00 AM 79 °F - 75 °F 85% 29.95 in 12 mi NNE 4.6 mph - -   Partly Cloudy
5:00 AM 77.0 °F - 77.0 °F 100% 29.93 in 6.2 mi North 4.6 mph - N/A   Mostly Cloudy
6:00 AM 77 °F - 76 °F 95% 29.94 in 11 mi ENE 9.2 mph - -   Partly Cloudy
6:00 AM 77.0 °F - 75.2 °F 94% 29.94 in 6.2 mi ENE 9.2 mph - N/A   Mostly Cloudy
7:00 AM 77.0 °F - 75.2 °F 94% 29.94 in 6.2 mi NE 2.3 mph - N/A   Mostly Cloudy
8:00 AM 78.8 °F - 75.2 °F 89% 29.95 in 6.2 mi NE 3.5 mph - N/A   Mostly Cloudy
9:00 AM 82 °F - 78 °F 84% 29.96 in 12 mi Calm Calm - -   Partly Cloudy
9:00 AM 82.4 °F 92.4 °F 78.8 °F 89% 29.95 in 6.2 mi Calm Calm - N/A   Mostly Cloudy
10:00 AM 84.2 °F 94.1 °F 77.0 °F 79% 29.95 in 6.2 mi NE 6.9 mph - N/A   Mostly Cloudy
11:00 AM 86.0 °F 99.3 °F 78.8 °F 79% 29.95 in 6.2 mi ENE 8.1 mph - N/A   Scattered Clouds
12:00 PM 85 °F - 78 °F 74% 29.94 in 12 mi NE 6.9 mph - -   Partly Cloudy
12:00 PM 86.0 °F 99.3 °F 78.8 °F 79% 29.93 in 6.2 mi NE 6.9 mph - N/A   Scattered Clouds
1:00 PM 87.8 °F 102.5 °F 78.8 °F 75% 29.91 in 6.2 mi East 6.9 mph - N/A   Scattered Clouds
2:00 PM 86.0 °F 99.3 °F 78.8 °F 79% 29.89 in 6.2 mi ENE 11.5 mph - N/A   Mostly Cloudy
3:00 PM 84 °F - 73 °F 63% 29.88 in 12 mi ESE 4.6 mph - -   Partly Cloudy
3:00 PM 84.2 °F 90.9 °F 73.4 °F 70% 29.87 in 6.2 mi ESE 4.6 mph - N/A   Mostly Cloudy
4:00 PM 86.0 °F 96.9 °F 77.0 °F 74% 29.87 in 6.2 mi ENE 9.2 mph - N/A   Mostly Cloudy
5:00 PM 82.4 °F 90.9 °F 77.0 °F 84% 29.88 in 6.2 mi East 6.9 mph - N/A   Mostly Cloudy
6:00 PM 82 °F - 77 °F 81% 29.89 in 12 mi East 4.6 mph - -   Partly Cloudy
6:00 PM 82.4 °F 90.9 °F 77.0 °F 84% 29.89 in 6.2 mi East 4.6 mph - N/A   Mostly Cloudy
9:00 PM 82 °F - 78 °F 83% 29.93 in 12 mi East 4.6 mph - -   Scattered Clouds